Location: Cassano d�Adda
(45.5333°N, 9.5167°E)
Time: 09:06:59
(UTC+00:00)

Cosmos 1536 - Pass Details

Date: 08 December 2019
Orbit: 540 x 559 km, 82.5° (Epoch: 21 January)

Event Time Altitude Azimuth Distance (km) Brightness Sun altitude
Rises 16:55:17 0° 354° (N) 2,740 6.2 -12.9°
Reaches altitude 10° 16:57:30 10° 358° (N) 1,838 5.3 -13.3°
Maximum altitude 17:01:30 60° 79° (E) 632 2.8 -14.0°
Drops below altitude 10° 17:05:26 10° 160° (SSE) 1,811 5.4 -14.6°
Sets 17:07:36 0° 164° (SSE) 2,695 6.4 -15.0°
